Location: Arbon
(43.0005°N, 0.7472°E)
Time: 20:25:24
(UTC+00:00)

Courier 1B Rocket - Pass Details

Date: 01 December 2020
Orbit: 920 x 1202 km, 28.2° (Epoch: 22 January)

Event Time Altitude Azimuth Distance (km) Brightness Sun altitude
Rises 07:25:23 0° 251° (WSW) 4,094 7.9 1.7°
Reaches altitude 10° 07:28:49 10° 239° (WSW) 3,122 7.4 2.3°
Maximum altitude 07:34:49 25° 188° (S) 2,182 7.2 3.2°
Drops below altitude 10° 07:40:39 10° 137° (SE) 3,024 9.7 4.1°
Sets 07:43:56 0° 124° (SE) 3,940 11.4 4.5°
